| time (UTC) | temp F | wind direction | speed MPH | gust MPH | rain 1hr in | rain 24hr in | rain mn in | humidity % | barometer mb |
| 20260510070028 | 64 | 335 | 1.0 | 4.0 | 0.18 | 0.19 | 0.18 | 87 | 1013.0 |
| 20260510064554 | 66 | 189 | 0.0 | 3.0 | 0.02 | 0.03 | 0.03 | 75 | 1011.7 |
| 20260510063035 | 68 | 26 | 1.0 | 5.0 | 0.00 | 0.01 | 0.00 | 61 | 1011.7 |
| 20260510061510 | 68 | 112 | 0.0 | 4.0 | 0.00 | 0.01 | 0.00 | 58 | 1011.7 |
| 20260510060050 | 68 | 175 | 0.0 | 4.0 | 0.00 | 0.01 | 0.00 | 60 | 1011.4 |
| 20260510054504 | 68 | 121 | 0.0 | 4.0 | 0.00 | 0.01 | 0.00 | 60 | 1011.4 |
| 20260510053044 | 68 | 157 | 0.0 | 4.0 | 0.00 | 0.01 | 0.00 | 59 | 1011.5 |
| 20260510051519 | 68 | 138 | 0.0 | 3.0 | 0.00 | 0.01 | 0.00 | 57 | 1011.3 |
| 20260510050058 | 68 | 121 | 0.0 | 2.0 | 0.00 | 0.01 | 0.01 | 58 | 1011.0 |
| 20260510044600 | 68 | 97 | 0.0 | 0.0 | 0.00 | 0.01 | 0.01 | 58 | 1011.0 |
| 20260510044501 | 68 | 97 | 0.0 | 1.0 | 0.00 | 0.01 | 0.01 | 58 | 1011.0 |
| 20260510043043 | 68 | 97 | 0.0 | 1.0 | 0.00 | 0.01 | 0.01 | 57 | 1010.7 |
| 20260510041517 | 68 | 109 | 0.0 | 1.0 | 0.00 | 0.01 | 0.01 | 58 | 1010.6 |
| 20260510040059 | 67 | 109 | 0.0 | 0.0 | 0.00 | 0.01 | 0.01 | 61 | 1010.7 |
| 20260510034516 | 66 | 109 | 0.0 | 0.0 | 0.00 | 0.01 | 0.01 | 63 | 1010.5 |
| 20260510033102 | 66 | 109 | 0.0 | 0.0 | 0.00 | 0.01 | 0.01 | 60 | 1010.4 |
| 20260510031527 | 66 | 109 | 0.0 | 0.0 | 0.00 | 0.01 | 0.01 | 61 | 1010.0 |
| 20260510030105 | 66 | 109 | 0.0 | 0.0 | 0.00 | 0.14 | 0.01 | 59 | 1009.4 |
| 20260510024522 | 66 | 109 | 0.0 | 0.0 | 0.00 | 0.14 | 0.01 | 58 | 1009.2 |
| 20260510023059 | 66 | 109 | 0.0 | 0.0 | 0.00 | 0.14 | 0.01 | 59 | 1008.9 |
| 20260510023001 | 67 | 109 | 0.0 | 0.0 | 0.00 | 0.14 | 0.01 | 61 | 1009.0 |
| 20260510021539 | 67 | 109 | 0.0 | 0.0 | 0.00 | 0.14 | 0.01 | 58 | 1008.8 |
| 20260510020116 | 68 | 109 | 0.0 | 0.0 | 0.00 | 0.14 | 0.01 | 55 | 1008.7 |
| 20260510014540 | 69 | 109 | 0.0 | 0.0 | 0.00 | 0.14 | 0.01 | 53 | 1008.6 |
| 20260510013010 | 71 | 109 | 0.0 | 0.0 | 0.00 | 0.14 | 0.01 | 49 | 1008.3 |
| 20260510011547 | 73 | 109 | 0.0 | 0.0 | 0.00 | 0.14 | 0.01 | 45 | 1008.1 |
| 20260510010005 | 76 | 109 | 0.0 | 0.0 | 0.00 | 0.14 | 0.01 | 41 | 1007.9 |
| 20260510004543 | 79 | 109 | 0.0 | 0.0 | 0.00 | 0.14 | 0.01 | 36 | 1007.9 |
| 20260510003023 | 83 | 109 | 0.0 | 0.0 | 0.00 | 0.14 | 0.01 | 30 | 1007.7 |
| 20260510001557 | 85 | 109 | 0.0 | 1.0 | 0.00 | 0.14 | 0.01 | 30 | 1007.7 |
| 20260510000018 | 86 | 296 | 0.0 | 1.0 | 0.00 | 0.14 | 0.01 | 27 | 1007.9 |
| 20260509234559 | 85 | 25 | 0.0 | 2.0 | 0.00 | 0.14 | 0.01 | 27 | 1008.0 |
| 20260509233033 | 86 | 156 | 0.0 | 3.0 | 0.00 | 0.14 | 0.01 | 23 | 1008.0 |
| 20260509231509 | 85 | 184 | 1.0 | 4.0 | 0.00 | 0.14 | 0.01 | 26 | 1008.1 |
| 20260509230045 | 87 | 92 | 1.0 | 5.0 | 0.00 | 0.14 | 0.01 | 24 | 1008.1 |
| 20260509224506 | 87 | 117 | 0.0 | 5.0 | 0.00 | 0.14 | 0.01 | 26 | 1008.2 |
| 20260509223054 | 86 | 138 | 1.0 | 4.0 | 0.00 | 0.14 | 0.01 | 22 | 1008.1 |
| 20260509221519 | 87 | 312 | 0.0 | 5.0 | 0.00 | 0.14 | 0.01 | 22 | 1008.2 |
| 20260509220057 | 87 | 244 | 0.0 | 2.0 | 0.00 | 0.14 | 0.01 | 30 | 1008.3 |
| 20260509214510 | 87 | 23 | 0.0 | 3.0 | 0.00 | 0.14 | 0.01 | 29 | 1008.3 |
| 20260509213049 | 86 | 199 | 0.0 | 6.0 | 0.00 | 0.14 | 0.01 | 30 | 1008.3 |
| 20260509211525 | 86 | 95 | 0.0 | 3.0 | 0.00 | 0.14 | 0.01 | 33 | 1008.6 |
| 20260509210109 | 87 | 170 | 0.0 | 4.0 | 0.00 | 0.14 | 0.01 | 36 | 1008.6 |
| 20260509204528 | 86 | 310 | 1.0 | 6.0 | 0.00 | 0.14 | 0.01 | 35 | 1008.8 |
| 20260509203003 | 86 | 10 | 0.0 | 4.0 | 0.00 | 0.14 | 0.01 | 32 | 1008.9 |
| 20260509201543 | 85 | 72 | 0.0 | 5.0 | 0.00 | 0.14 | 0.01 | 33 | 1009.2 |
| 20260509200115 | 86 | 315 | 0.0 | 6.0 | 0.00 | 0.14 | 0.01 | 34 | 1009.3 |
| 20260509194536 | 85 | 114 | 1.0 | 4.0 | 0.00 | 0.14 | 0.01 | 32 | 1009.4 |
| 20260509193006 | 85 | 158 | 2.0 | 4.0 | 0.00 | 0.14 | 0.01 | 32 | 1009.6 |
| 20260509191545 | 84 | 122 | 2.0 | 6.0 | 0.00 | 0.14 | 0.01 | 33 | 1009.6 |
| 20260509190118 | 84 | 96 | 0.0 | 4.0 | 0.00 | 0.14 | 0.01 | 40 | 1009.6 |
| 20260509184554 | 84 | 156 | 1.0 | 5.0 | 0.00 | 0.14 | 0.01 | 35 | 1009.7 |
| 20260509183019 | 83 | 325 | 1.0 | 3.0 | 0.00 | 0.14 | 0.01 | 33 | 1009.8 |
| 20260509181612 | 83 | 320 | 1.0 | 6.0 | 0.00 | 0.14 | 0.01 | 35 | 1010.0 |
| 20260509180030 | 81 | 8 | 1.0 | 5.0 | 0.00 | 0.14 | 0.01 | 39 | 1010.1 |
| 20260509174549 | 81 | 37 | 2.0 | 4.0 | 0.00 | 0.14 | 0.01 | 51 | 1010.2 |
| 20260509173024 | 81 | 142 | 0.0 | 2.0 | 0.00 | 0.14 | 0.01 | 50 | 1010.1 |
| 20260509171505 | 79 | 7 | 1.0 | 4.0 | 0.00 | 0.14 | 0.01 | 55 | 1010.2 |
| 20260509170021 | 79 | 351 | 1.0 | 3.0 | 0.00 | 0.14 | 0.01 | 63 | 1010.3 |
| 20260509164555 | 77 | 158 | 1.0 | 3.0 | 0.00 | 0.14 | 0.01 | 61 | 1010.5 |
| 20260509163035 | 76 | 332 | 1.0 | 3.0 | 0.00 | 0.14 | 0.01 | 67 | 1010.6 |
| 20260509161512 | 75 | 32 | 0.0 | 3.0 | 0.00 | 0.14 | 0.01 | 68 | 1010.6 |
| 20260509160049 | 75 | 333 | 0.0 | 2.0 | 0.00 | 0.14 | 0.01 | 71 | 1010.7 |
| 20260509154508 | 72 | 277 | 1.0 | 5.0 | 0.00 | 0.14 | 0.01 | 72 | 1010.8 |
| 20260509153046 | 72 | 360 | 1.0 | 3.0 | 0.00 | 0.14 | 0.01 | 72 | 1010.8 |
| 20260509151518 | 72 | 2 | 0.0 | 2.0 | 0.00 | 0.14 | 0.01 | 71 | 1010.8 |
| 20260509150048 | 72 | 309 | 0.0 | 1.0 | 0.00 | 0.14 | 0.01 | 71 | 1010.9 |
| 20260509144611 | 71 | 352 | 0.0 | 1.0 | 0.00 | 0.14 | 0.01 | 74 | 1010.7 |
| 20260509144509 | 70 | 352 | 0.0 | 1.0 | 0.00 | 0.14 | 0.01 | 74 | 1010.8 |
| 20260509143042 | 69 | 75 | 0.0 | 2.0 | 0.00 | 0.14 | 0.01 | 76 | 1010.9 |
| 20260509141522 | 67 | 300 | 0.0 | 2.0 | 0.00 | 0.14 | 0.01 | 78 | 1010.9 |
| 20260509140104 | 66 | 290 | 0.0 | 2.0 | 0.00 | 0.14 | 0.01 | 79 | 1010.8 |
| 20260509134506 | 67 | 279 | 0.0 | 2.0 | 0.00 | 0.14 | 0.01 | 78 | 1010.7 |
| 20260509133048 | 65 | 360 | 0.0 | 0.0 | 0.00 | 0.14 | 0.01 | 81 | 1010.7 |
| 20260509131526 | 63 | 295 | 0.0 | 1.0 | 0.00 | 0.14 | 0.01 | 84 | 1010.5 |
| 20260509130101 | 64 | 157 | 0.0 | 0.0 | 0.00 | 0.14 | 0.01 | 83 | 1010.3 |
| 20260509124518 | 61 | 157 | 0.0 | 0.0 | 0.00 | 0.14 | 0.01 | 90 | 1010.1 |
| 20260509123127 | 59 | 157 | 0.0 | 0.0 | 0.00 | 0.14 | 0.01 | 92 | 1010.1 |
| 20260509121548 | 57 | 157 | 0.0 | 0.0 | 0.00 | 0.14 | 0.01 | 93 | 1009.8 |
| 20260509120116 | 56 | 156 | 0.0 | 0.0 | 0.00 | 0.14 | 0.01 | 93 | 1009.8 |
| 20260509114540 | 54 | 156 | 0.0 | 0.0 | 0.00 | 0.14 | 0.01 | 93 | 1009.5 |
| 20260509113026 | 55 | 156 | 0.0 | 0.0 | 0.00 | 0.14 | 0.01 | 93 | 1009.4 |
| 20260509111605 | 54 | 156 | 0.0 | 0.0 | 0.00 | 0.14 | 0.01 | 93 | 1009.3 |
| 20260509110038 | 55 | 156 | 0.0 | 0.0 | 0.00 | 0.14 | 0.01 | 93 | 1009.3 |
| 20260509104558 | 55 | 156 | 0.0 | 0.0 | 0.00 | 0.14 | 0.01 | 92 | 1009.2 |
| 20260509103045 | 55 | 156 | 0.0 | 0.0 | 0.00 | 0.14 | 0.01 | 92 | 1009.1 |
| 20260509101513 | 56 | 156 | 0.0 | 0.0 | 0.00 | 0.14 | 0.01 | 92 | 1009.1 |
| 20260509100052 | 56 | 156 | 0.0 | 0.0 | 0.00 | 0.14 | 0.01 | 92 | 1009.0 |
| 20260509094517 | 56 | 156 | 0.0 | 0.0 | 0.00 | 0.14 | 0.01 | 92 | 1009.0 |
| 20260509093048 | 57 | 156 | 0.0 | 0.0 | 0.00 | 0.14 | 0.01 | 92 | 1008.9 |
| 20260509091536 | 57 | 156 | 0.0 | 0.0 | 0.00 | 0.14 | 0.01 | 92 | 1009.0 |
| 20260509090107 | 57 | 156 | 0.0 | 0.0 | 0.00 | 0.14 | 0.01 | 92 | 1009.0 |
| 20260509084524 | 57 | 156 | 0.0 | 0.0 | 0.00 | 0.14 | 0.01 | 92 | 1009.0 |
| 20260509083003 | 57 | 156 | 0.0 | 0.0 | 0.01 | 0.14 | 0.01 | 92 | 1009.0 |
| 20260509081543 | 57 | 156 | 0.0 | 0.0 | 0.01 | 0.14 | 0.01 | 92 | 1009.1 |
| 20260509080115 | 58 | 156 | 0.0 | 1.0 | 0.01 | 0.14 | 0.01 | 92 | 1009.3 |
| 20260509074545 | 58 | 156 | 0.0 | 0.0 | 0.01 | 0.14 | 0.01 | 92 | 1009.4 |
| 20260509073018 | 58 | 156 | 0.0 | 0.0 | 0.00 | 0.13 | 0.00 | 92 | 1009.5 |
| 20260509071558 | 58 | 156 | 0.0 | 1.0 | 0.00 | 0.13 | 0.00 | 92 | 1009.9 |